Time,TemperatureF,DewpointF,PressureIn,WindDirection,WindDirectionDegrees,WindSpeedMPH,WindSpeedGustMPH,Humidity,HourlyPrecipIn,Conditions,Clouds,dailyrainin,SoftwareType,DateUTC
2013-02-16 00:14:00,54.8,51.3,29.93,NNE,15,0.0,0.0,88,0.00,,,0.00,WeatherDisplay:10.37,2013-02-16 05:14:00,
2013-02-16 00:29:00,55.0,51.5,29.92,NNE,15,0.0,0.0,88,0.00,,,0.00,WeatherDisplay:10.37,2013-02-16 05:29:00,
2013-02-16 00:44:00,54.8,51.0,29.92,NNE,15,0.0,0.0,87,0.00,,,0.00,WeatherDisplay:10.37,2013-02-16 05:44:00,
2013-02-16 00:59:00,54.6,51.1,29.92,NNE,15,0.0,0.0,88,0.00,,,0.00,WeatherDisplay:10.37,2013-02-16 05:59:00,
2013-02-16 01:14:00,55.0,51.5,29.92,NNE,15,0.0,2.0,88,0.00,,,0.00,WeatherDisplay:10.37,2013-02-16 06:14:00,
2013-02-16 01:29:00,55.4,51.6,29.92,North,355,0.0,5.0,87,0.00,,,0.00,WeatherDisplay:10.37,2013-02-16 06:29:00,
2013-02-16 01:44:00,55.6,51.5,29.90,NNW,339,0.0,0.0,86,0.00,,,0.00,WeatherDisplay:10.37,2013-02-16 06:44:00,
2013-02-16 01:59:00,55.4,51.3,29.90,NNW,339,0.0,0.0,86,0.00,,,0.00,WeatherDisplay:10.37,2013-02-16 06:59:00,
2013-02-16 02:14:00,55.4,51.6,29.90,NNW,339,0.0,0.0,87,0.00,,,0.00,WeatherDisplay:10.37,2013-02-16 07:14:00,
2013-02-16 02:29:00,55.3,51.2,29.90,NNW,339,0.0,0.0,86,0.00,,,0.00,WeatherDisplay:10.37,2013-02-16 07:29:00,
2013-02-16 02:44:00,55.1,51.0,29.89,NNW,339,0.0,0.0,86,0.00,,,0.00,WeatherDisplay:10.37,2013-02-16 07:44:00,
2013-02-16 02:59:00,55.0,50.9,29.89,NNW,339,0.0,0.0,86,0.00,,,0.00,WeatherDisplay:10.37,2013-02-16 07:59:00,
2013-02-16 03:14:00,54.8,50.4,29.89,NNW,339,0.0,0.0,85,0.00,,,0.00,WeatherDisplay:10.37,2013-02-16 08:14:00,
2013-02-16 03:29:00,54.5,50.1,29.88,NNW,339,0.0,0.0,85,0.00,,,0.00,WeatherDisplay:10.37,2013-02-16 08:29:00,
2013-02-16 03:44:00,54.4,49.3,29.88,NNW,338,0.0,0.0,83,0.00,,,0.00,WeatherDisplay:10.37,2013-02-16 08:44:00,
2013-02-16 03:59:00,54.5,49.1,29.88,NNW,336,0.0,0.0,82,0.00,,,0.00,WeatherDisplay:10.37,2013-02-16 08:59:00,
2013-02-16 04:14:00,54.2,49.1,29.88,NNW,336,0.0,0.0,83,0.00,,,0.00,WeatherDisplay:10.37,2013-02-16 09:14:00,
2013-02-16 04:29:00,53.8,49.1,29.88,NNW,336,0.0,0.0,84,0.00,,,0.00,WeatherDisplay:10.37,2013-02-16 09:29:00,
2013-02-16 04:44:00,53.1,48.7,29.88,NNW,336,0.0,0.0,85,0.00,,,0.00,WeatherDisplay:10.37,2013-02-16 09:44:00,
2013-02-16 04:59:00,52.6,48.5,29.88,NNW,336,0.0,0.0,86,0.00,,,0.00,WeatherDisplay:10.37,2013-02-16 09:59:00,
2013-02-16 05:14:00,52.5,48.4,29.88,NNW,336,0.0,0.0,86,0.00,,,0.00,WeatherDisplay:10.37,2013-02-16 10:14:00,
2013-02-16 05:29:00,52.3,48.2,29.88,NNW,336,0.0,0.0,86,0.00,,,0.00,WeatherDisplay:10.37,2013-02-16 10:29:00,
2013-02-16 05:44:00,52.2,48.1,29.87,NNW,336,0.0,0.0,86,0.00,,,0.00,WeatherDisplay:10.37,2013-02-16 10:44:00,
2013-02-16 05:59:00,51.4,47.7,29.88,NNW,336,0.0,0.0,87,0.00,,,0.00,WeatherDisplay:10.37,2013-02-16 10:59:00,
2013-02-16 06:14:00,50.8,47.1,29.88,NNW,336,0.0,0.0,87,0.00,,,0.00,WeatherDisplay:10.37,2013-02-16 11:14:00,
2013-02-16 06:29:00,50.5,47.1,29.89,NNW,336,0.0,0.0,88,0.00,,,0.00,WeatherDisplay:10.37,2013-02-16 11:29:00,
2013-02-16 06:44:00,50.5,47.4,29.89,NNW,336,0.0,0.0,89,0.00,,,0.00,WeatherDisplay:10.37,2013-02-16 11:44:00,
2013-02-16 06:59:00,50.1,47.0,29.89,NNW,336,0.0,0.0,89,0.00,CLR,,0.00,WeatherDisplay:10.37,2013-02-16 11:59:00,
2013-02-16 07:14:00,49.9,46.8,29.88,NNW,336,0.0,0.0,89,0.00,CLR,,0.00,WeatherDisplay:10.37,2013-02-16 12:14:00,
2013-02-16 07:29:00,49.9,47.1,29.88,NNW,336,0.0,0.0,90,0.00,CLR,,0.00,WeatherDisplay:10.37,2013-02-16 12:29:00,
2013-02-16 07:44:00,50.4,47.6,29.88,NNW,336,0.0,0.0,90,0.00,CLR,,0.00,WeatherDisplay:10.37,2013-02-16 12:44:00,
2013-02-16 07:59:00,51.5,48.9,29.88,NNW,333,0.0,2.0,91,0.00,CLR,,0.00,WeatherDisplay:10.37,2013-02-16 12:59:00,
2013-02-16 08:14:00,52.2,49.4,29.88,NW,323,0.0,0.0,90,0.00,CLR,,0.00,WeatherDisplay:10.37,2013-02-16 13:14:00,
2013-02-16 08:29:00,53.3,49.9,29.88,NW,317,0.0,4.0,88,0.00,CLR,,0.00,WeatherDisplay:10.37,2013-02-16 13:29:00,
2013-02-16 08:44:00,54.7,50.3,29.89,West,274,0.0,0.0,85,0.00,CLR,,0.00,WeatherDisplay:10.37,2013-02-16 13:44:00,
2013-02-16 08:59:00,56.3,50.5,29.89,West,261,0.0,5.0,81,0.00,CLR,,0.00,WeatherDisplay:10.37,2013-02-16 13:59:00,
2013-02-16 09:14:00,57.0,49.2,29.90,WSW,248,0.0,7.0,75,0.00,CLR,,0.00,WeatherDisplay:10.37,2013-02-16 14:14:00,
2013-02-16 09:29:00,58.4,47.5,29.89,WSW,248,0.0,6.0,67,0.00,CLR,,0.00,WeatherDisplay:10.37,2013-02-16 14:29:00,
2013-02-16 09:44:00,60.5,47.0,29.89,WSW,245,0.0,7.0,61,0.00,CLR,,0.00,WeatherDisplay:10.37,2013-02-16 14:44:00,
2013-02-16 09:59:00,63.7,43.6,29.89,WSW,250,0.0,6.0,48,0.00,CLR,,0.00,WeatherDisplay:10.37,2013-02-16 14:59:00,
2013-02-16 10:14:00,65.5,41.2,29.89,SW,216,0.0,8.0,41,0.00,CLR,,0.00,WeatherDisplay:10.37,2013-02-16 15:14:00,
2013-02-16 10:29:00,64.8,38.6,29.90,WSW,249,3.0,14.0,38,0.00,CLR,,0.00,WeatherDisplay:10.37,2013-02-16 15:29:00,
2013-02-16 10:44:00,64.8,36.5,29.90,WSW,252,3.0,15.0,35,0.00,CLR,,0.00,WeatherDisplay:10.37,2013-02-16 15:44:00,
2013-02-16 10:59:00,65.2,37.5,29.90,WSW,237,1.0,16.0,36,0.00,CLR,,0.00,WeatherDisplay:10.37,2013-02-16 15:59:00,
2013-02-16 11:14:00,65.5,37.8,29.90,WSW,253,0.0,21.0,36,0.00,CLR,,0.00,WeatherDisplay:10.37,2013-02-16 16:14:00,
2013-02-16 11:29:00,65.9,37.5,29.90,WSW,250,1.0,12.0,35,0.00,CLR,,0.00,WeatherDisplay:10.37,2013-02-16 16:29:00,
2013-02-16 11:44:00,66.1,36.9,29.90,West,261,1.0,10.0,34,0.00,CLR,,0.00,WeatherDisplay:10.37,2013-02-16 16:44:00,
2013-02-16 11:59:00,66.0,39.0,29.90,West,271,5.0,12.0,37,0.00,CLR,,0.00,WeatherDisplay:10.37,2013-02-16 16:59:00,
2013-02-16 12:14:00,66.3,39.9,29.89,WSW,251,6.0,18.0,38,0.00,CLR,,0.00,WeatherDisplay:10.37,2013-02-16 17:14:00,
2013-02-16 12:29:00,66.1,37.6,29.89,West,279,3.0,15.0,35,0.00,CLR,,0.00,WeatherDisplay:10.37,2013-02-16 17:29:00,
2013-02-16 12:44:00,66.8,39.0,29.88,West,259,3.0,23.0,36,0.00,CLR,,0.00,WeatherDisplay:10.37,2013-02-16 17:44:00,
2013-02-16 12:59:00,66.8,39.0,29.87,WSW,252,2.0,18.0,36,0.00,CLR,,0.00,WeatherDisplay:10.37,2013-02-16 17:59:00,
2013-02-16 13:14:00,67.4,39.5,29.86,WSW,257,1.0,18.0,36,0.00,CLR,,0.00,WeatherDisplay:10.37,2013-02-16 18:14:00,
2013-02-16 13:29:00,67.4,40.2,29.85,WSW,253,3.0,16.0,37,0.00,CLR,,0.00,WeatherDisplay:10.37,2013-02-16 18:29:00,
2013-02-16 13:44:00,68.0,43.4,29.84,WSW,248,1.0,18.0,41,0.00,CLR,,0.00,WeatherDisplay:10.37,2013-02-16 18:44:00,
2013-02-16 13:59:00,68.6,43.3,29.84,WSW,253,6.0,15.0,40,0.00,,,0.00,WeatherDisplay:10.37,2013-02-16 18:59:00,
2013-02-16 14:14:00,67.8,43.9,29.84,West,261,3.0,12.0,42,0.00,,,0.00,WeatherDisplay:10.37,2013-02-16 19:14:00,
2013-02-16 14:29:00,66.3,41.9,29.84,WSW,253,6.0,27.0,41,0.00,,,0.00,WeatherDisplay:10.37,2013-02-16 19:29:00,
2013-02-16 14:44:00,66.4,42.0,29.84,WSW,255,2.0,18.0,41,0.00,,,0.00,WeatherDisplay:10.37,2013-02-16 19:44:00,
2013-02-16 14:59:00,66.0,40.3,29.84,WSW,258,2.0,14.0,39,0.00,,,0.00,WeatherDisplay:10.37,2013-02-16 19:59:00,
2013-02-16 15:14:00,66.4,39.3,29.85,West,261,5.0,18.0,37,0.00,,,0.00,WeatherDisplay:10.37,2013-02-16 20:14:00,
2013-02-16 15:29:00,66.0,40.3,29.85,WSW,251,2.0,16.0,39,0.00,,,0.00,WeatherDisplay:10.37,2013-02-16 20:29:00,
2013-02-16 15:44:00,65.5,40.5,29.85,WSW,251,3.0,24.0,40,0.00,,,0.00,WeatherDisplay:10.37,2013-02-16 20:44:00,
2013-02-16 15:59:00,65.8,40.8,29.86,WSW,241,7.0,20.0,40,0.00,CLR,,0.00,WeatherDisplay:10.37,2013-02-16 20:59:00,
2013-02-16 16:14:00,63.5,37.4,29.86,WSW,247,1.0,16.0,38,0.00,CLR,,0.00,WeatherDisplay:10.37,2013-02-16 21:14:00,
2013-02-16 16:29:00,63.2,40.4,29.87,West,267,6.0,22.0,43,0.00,CLR,,0.00,WeatherDisplay:10.37,2013-02-16 21:29:00,
2013-02-16 16:44:00,61.5,39.9,29.88,West,268,2.0,25.0,45,0.00,CLR,,0.00,WeatherDisplay:10.37,2013-02-16 21:44:00,
2013-02-16 16:59:00,60.0,39.7,29.89,West,262,6.0,20.0,47,0.00,CLR,,0.00,WeatherDisplay:10.37,2013-02-16 21:59:00,
2013-02-16 17:14:00,58.9,39.8,29.89,West,266,3.0,18.0,49,0.00,CLR,,0.00,WeatherDisplay:10.37,2013-02-16 22:14:00,
2013-02-16 17:29:00,58.7,39.6,29.90,West,263,2.0,20.0,49,0.00,CLR,,0.00,WeatherDisplay:10.37,2013-02-16 22:29:00,
2013-02-16 17:44:00,58.3,35.9,29.90,WSW,248,2.0,18.0,43,0.00,CLR,,0.00,WeatherDisplay:10.37,2013-02-16 22:44:00,
2013-02-16 17:59:00,57.8,30.3,29.90,West,262,1.0,23.0,35,0.00,CLR,,0.00,WeatherDisplay:10.37,2013-02-16 22:59:00,
2013-02-16 18:14:00,57.0,23.3,29.91,West,272,7.0,25.0,27,0.00,CLR,,0.00,WeatherDisplay:10.37,2013-02-16 23:14:00,
2013-02-16 18:29:00,56.2,23.5,29.92,West,266,6.0,18.0,28,0.00,CLR,,0.00,WeatherDisplay:10.37,2013-02-16 23:29:00,
2013-02-16 18:44:00,55.5,25.3,29.93,West,264,2.0,18.0,31,0.00,CLR,,0.00,WeatherDisplay:10.37,2013-02-16 23:44:00,
2013-02-16 18:59:00,54.7,28.9,29.95,WSW,240,2.0,14.0,37,0.00,,,0.00,WeatherDisplay:10.37,2013-02-16 23:59:00,
2013-02-16 19:14:00,53.9,31.9,29.95,WSW,247,3.0,20.0,43,0.00,,,0.00,WeatherDisplay:10.37,2013-02-17 00:14:00,
2013-02-16 19:29:00,53.5,33.7,29.96,West,259,2.0,18.0,47,0.00,,,0.00,WeatherDisplay:10.37,2013-02-17 00:29:00,
2013-02-16 19:44:00,53.2,34.5,29.97,WSW,257,2.0,20.0,49,0.00,,,0.00,WeatherDisplay:10.37,2013-02-17 00:44:00,
2013-02-16 19:59:00,52.9,34.8,29.97,West,259,1.0,12.0,50,0.00,,,0.00,WeatherDisplay:10.37,2013-02-17 00:59:00,
2013-02-16 20:14:00,52.6,35.0,29.97,WSW,252,0.0,12.0,51,0.00,,,0.00,WeatherDisplay:10.37,2013-02-17 01:14:00,
2013-02-16 20:29:00,52.2,35.6,29.98,WSW,250,2.0,12.0,53,0.00,,,0.00,WeatherDisplay:10.37,2013-02-17 01:29:00,
2013-02-16 20:44:00,51.9,35.8,29.98,WSW,248,1.0,5.0,54,0.00,,,0.00,WeatherDisplay:10.37,2013-02-17 01:44:00,
2013-02-16 20:59:00,51.4,36.2,29.98,WSW,249,0.0,6.0,56,0.00,,,0.00,WeatherDisplay:10.37,2013-02-17 01:59:00,
2013-02-16 21:14:00,51.0,36.7,29.99,WSW,250,0.0,5.0,58,0.00,,,0.00,WeatherDisplay:10.37,2013-02-17 02:14:00,
2013-02-16 21:29:00,50.5,37.1,29.99,WSW,250,0.0,2.0,60,0.00,,,0.00,WeatherDisplay:10.37,2013-02-17 02:29:00,
2013-02-16 21:44:00,51.0,37.6,30.00,WSW,258,0.0,5.0,60,0.00,,,0.00,WeatherDisplay:10.37,2013-02-17 02:44:00,
2013-02-16 21:59:00,51.6,37.7,30.01,WSW,255,0.0,5.0,59,0.00,CLR,,0.00,WeatherDisplay:10.37,2013-02-17 02:59:00,
2013-02-16 22:14:00,51.9,37.6,30.01,WSW,255,2.0,12.0,58,0.00,CLR,,0.00,WeatherDisplay:10.37,2013-02-17 03:14:00,
2013-02-16 22:29:00,51.8,37.5,30.02,West,261,1.0,9.0,58,0.00,CLR,,0.00,WeatherDisplay:10.37,2013-02-17 03:29:00,
2013-02-16 22:44:00,51.6,35.5,30.03,WNW,296,2.0,9.0,54,0.00,CLR,,0.00,WeatherDisplay:10.37,2013-02-17 03:44:00,
2013-02-16 22:59:00,51.3,31.2,30.04,WNW,297,1.0,20.0,46,0.00,CLR,,0.00,WeatherDisplay:10.37,2013-02-17 03:59:00,
2013-02-16 23:14:00,50.7,30.1,30.04,NW,306,2.0,20.0,45,0.00,CLR,,0.00,WeatherDisplay:10.37,2013-02-17 04:14:00,
2013-02-16 23:29:00,49.9,27.7,30.06,WNW,289,7.0,16.0,42,0.00,CLR,,0.00,WeatherDisplay:10.37,2013-02-17 04:29:00,
2013-02-16 23:44:00,49.2,27.6,30.06,WNW,303,2.0,16.0,43,0.00,CLR,,0.00,WeatherDisplay:10.37,2013-02-17 04:44:00,
2013-02-16 23:59:00,48.3,26.8,30.07,NW,314,5.0,12.0,43,0.00,CLR,,0.00,WeatherDisplay:10.37,2013-02-17 04:59:00,